STARLINK-3747, 52306

Orbit data source: Space-Track

STARLINK-3747, 52306 is a payload satellite owned by SpaceX/Seattle (US) in LEO that was launched on Thu, 21 Apr 2022 UTC via an FALCON 9 launch vehicle from the Air Force Eastern Test Range (AFETR). Payload-class satellites include a variety of spacecraft equipped with specific instruments for various scientific and technological missions. These include communications satellites like Starlink; space stations such as the ISS; scientific satellites like the Hubble; Earth observation satellites from companies like Planet Labs, Umbra, and HawkEye 360; GPS; miniature CubeSats for education and research; and military/defense satellites.

Loading next visibility...
Identifier
52306, 2022-041AX
Orbit
LEO
Country
Flag of USUS
Related business
Manufacturer
SpaceX/Seattle
Mission
Operational Commercial Communications
Bus & Motor
STARLINK, Unknown motor
Mass
297 kg wet, ~275 kg dry
Launch date (UTC)
2022-04-21 (4 years ago)
Launch vehicle
FALCON 9
Launch site
Air Force Eastern Test Range (AFETR)
Object type
Payload
Rocket body
Debris
Shape & HBR
Box + 1 Pan, 10.1 m
Radar Cross Section
11.087 m², Large (>1 m²)

Expand to show TLE details & history
Last TLE update: 7 hours ago

TLE from 7 hours ago
0 STARLINK-3747
1 52306U 22041AX  26130.17719329  .00000800  00000-0  68319-4 0  9995
2 52306  53.2168 173.0929 0001156  86.6216 273.4909 15.08840199225149
Epoch: 2026-05-10T04:15Z
TLE epoch observation values (Epoch: 2026-05-10T04:15:09.500Z)
Latitude
0.00004°
Longitude
-118.68067°
Altitude
540.592 km
Speed
7.593 km/s
True Right ascension
11h 32m 22s
True Declination
0° 00' 00"
Sunlit
Object was in full shadow at epoch
Visualization orbit readout
Latitude
Unknown
Longitude
Unknown
Altitude
Unknown
Speed
Unknown
Apparent Right ascension
Unknown
Apparent Declination
Unknown
Sunlit
N/A
Visualization observer readout
Local Sidereal Time
19:47:43
Azimuth
Unknown
Elevation
Unknown
Doppler factor
Unknown
Orbital elements
Apogee altitude
540.788 km
Perigee altitude
539.188 km
Semi-major axis
6,918.125 km
Eccentricity
0.00012
Inclination
53.2168°
RAAN
173.0929°
Arg. of periapsis
86.6216°
True anomaly
273.47768°
Mean anomaly
273.4909°
Eccentric anomaly
273.48429°
Mean motion
3.7719 °/min
Orbital period
95.44 mins
BSTAR
0.000068319
Loading maneuver chart data...
Computing Atmospheric mass density...
Loading historical data...
Loading historical data...
Loading historical data...
Loading historical data...
Loading historical data...
Loading historical data...
Loading historical data...

Documentation

Showing up to 5 results
|